Regional Weather Roundup
Issued by NWS

Home | Current Version | Previous Version | Graphics & Text | Print | Product List | Glossary On
Versions: 1 2 3 4 5 6 7 8 9 10 11 12 13 14 15 16 17 18 19 20 21 22 23 24 25 26 27 28 29 30 31 32 33 34 35 36 37 38 39 40 41 42 43 44 45 46 47 48 49 50
669
ASUS43 KDMX 302208
RWRIA

WEATHER ROUNDUP FOR IOWA
NATIONAL WEATHER SERVICE DES MOINES IA
500 PM CDT FRI SEP 30 2016

NOTE: "FAIR" INDICATES FEW OR NO CLOUDS BELOW 12,000 FEET WITH NO
SIGNIFICANT WEATHER AND/OR OBSTRUCTIONS TO VISIBILITY.

* - THESE STATIONS ARE NOT NWS STATIONS...THUS NOT UNDER NWS
QUALITY CONTROL.  THEY ALSO DO NOT REPORT WEATHER SUCH
AS PRECIPITATION OR FOG.

IAZ001>003-012>014-020>022-031>034-043>046-302300-
   NORTHWEST IOWA

CITY           SKY/WX    TMP DP  RH WIND       PRES   REMARKS
CARROLL *      MOSUNNY   70  55  60 VRB7G15   30.17S
CHEROKEE *     SUNNY     72  50  45 E6        30.18F
DENISON *      MOSUNNY   70  54  56 E9        30.15F
LE MARS *      SUNNY     73  46  38 E8        30.19S
SHELDON *      SUNNY     72  45  37 E7G14     30.18S
SIOUX CITY     SUNNY     75  46  35 E9        30.17F
SPENCER        SUNNY     72  51  47 NE12      30.19F
STORM LAKE *   SUNNY     72  52  49 E8G15     30.19S
$$

IAZ055>058-069>071-079>083-090>094-302300-
   SOUTHWEST IOWA

CITY           SKY/WX    TMP DP  RH WIND       PRES   REMARKS
ATLANTIC *     MOSUNNY   70  55  60 NE8       30.16S HAZE
AUDUBON *      PTSUNNY   70  55  60 E8G16     30.18S
CLARINDA *       N/A     73  52  46 MISG      30.16F
COUNCIL BLFS * SUNNY     73  48  40 NE7       30.16S
CRESTON *      CLOUDY    63  54  72 NE10      30.18S
HARLAN  *      MOSUNNY   72  54  53 NE10      30.20S
LAMONI         CLOUDY    63  55  75 NE10      30.16F
RED OAK *      SUNNY     72  54  53 NE13      30.15F
SHENANDOAH *   SUNNY     73  48  40 NE6G12    30.15F
$$

IAZ047>049-059>061-072>074-084-302300-
   CENTRAL IOWA

CITY           SKY/WX    TMP DP  RH WIND       PRES   REMARKS
AMES           CLOUDY    64  57  78 NE10      30.18S
ANKENY *         N/A    N/A N/A N/A MISG        N/A
BOONE *        CLOUDY    64  55  72 NE10      30.17S
CHARITON *       N/A     64  55  72 NE8       30.16S
DES MOINES     CLOUDY    66  55  67 NE10      30.17S
GRINNELL*      CLOUDY    63  55  75 N3        30.18S
KNOXVILLE *    CLOUDY    63  54  72 N6        30.15S
MARSHALLTOWN   CLOUDY    63  56  78 N7        30.17F
NEWTON *       CLOUDY    63  55  77 N8        30.16F
PELLA *        CLOUDY    64  55  72 N7        30.18S
PERRY *        CLOUDY    67  57  71 NE7       30.18S HAZE
$$

IAZ004>006-015-016-023>025-035-036-302300-
   NORTH CENTRAL IOWA

CITY           SKY/WX    TMP DP  RH WIND       PRES   REMARKS
ALGONA *       CLOUDY    70  54  56 E8G16     30.19S
CLARION *      CLOUDY    68  55  64 E8        30.18F
ESTHERVILLE    SUNNY     71  51  49 N8        30.18F
FORT DODGE *   CLOUDY    66  54  63 E12       30.19S
MASON CITY     CLOUDY    67  54  63 E6        30.20F
FOREST CITY *  CLOUDY    68  52  56 E7        30.19S
WEBSTER CITY * CLOUDY    66  57  72 NE7       30.16F
IOWA FALLS *   CLOUDY    65  55  71 NE7       30.20R
$$

IAZ007>011-017>019-026>030-037>042-050>054-066-302300-
   NORTHEAST IOWA

CITY           SKY/WX    TMP DP  RH WIND       PRES   REMARKS
CEDAR RAPIDS   CLOUDY    62  57  83 NE10      30.15S
CHARLES CITY * CLOUDY    64  55  72 E9        30.20F
CLINTON *      CLOUDY    63  58  83 N13       30.12F
DECORAH *      CLOUDY    61  57  88 NE5       30.19S
DUBUQUE        CLOUDY    60  57  89 N10       30.15S
MONTICELLO *   CLOUDY    63  57  82 N7        30.15S
OELWEIN *      CLOUDY    61  55  82 N13       30.18F
WATERLOO       CLOUDY    63  54  72 NE13      30.17F
$$

IAZ064-065-067-068-078-302300-
   EAST CENTRAL IOWA

CITY           SKY/WX    TMP DP  RH WIND       PRES   REMARKS
DAVENPORT      CLOUDY    63  57  81 NE14      30.12S
IOWA CITY      CLOUDY    63  56  78 N9        30.15F
MT. PLEASANT * CLOUDY    67  57  70 N10       30.12F
MUSCATINE *    CLOUDY    66  57  72 N9        30.12S
QUAD CITIES    CLOUDY    66  57  72 N6        30.10S
$$

IAZ062-063-075>077-085>089-095>099-302300-
   SOUTHEAST IOWA

CITY           SKY/WX    TMP DP  RH WIND       PRES   REMARKS
BURLINGTON     CLOUDY    65  58  78 N10       30.10S
FAIRFIELD *    CLOUDY    64  55  72 N8G14     30.13F
FORT MADISON *   N/A     66  55  68 N10       30.11F
KEOKUK *       CLOUDY    66  57  72 N7G14     30.09F
OSKALOOSA *    CLOUDY    63  55  75 N8        30.15F
OTTUMWA        CLOUDY    64  54  69 N10       30.15F
WASHINGTON *     N/A    N/A N/A N/A MISG        N/A
$$

ABBREVIATIONS USED IN REMARKS
   TC - TEMPERATURES IN CELSIUS
  WCI - WIND CHILL INDEX
   HX - HEAT INDEX
  VSB - VISIBILITY
$$





USA.gov is the U.S. government's official web portal to all federal, state and local government web resources and services.